www.pogodaiklimat.ru

Погода и климат >> Архив погоды >> Канада >> Саскачеван >> Ки Лейк 2


ПОГОДА в Ки Лейк 2

  • Прогноз погоды в Ки Лейк 2
  • Монитор погоды в Ки Лейк 2

АРХИВ ПОГОДЫ в Ки Лейк 2

Время (UTC), дата Ветер
(напр.,м/с)
 
Видим.   Явления Облачность Т
(С)
Тd
(С)
f
(%)
Тe
(С)
Тes
(С)
Комфортность P
(гПа)
Po
(гПа)
Тmin
(С)
Tmax
(С)
R
(мм)
R24
(мм)
S
(см)
18 10.02 ЮЗ 4 16 км ясно -23.0 -25.7 78 -32 -31 опасность
обморожения
1031.8 964.2 -31.8 -23.0
21 10.02 ЮЗ 5 16 км ясно -18.4 -23.5 64 -28 -28 1029.5 962.4
00 11.02 ЮЗ 3 16 км ясно -20.6 -24.0 74 -28 -28 1028.5 961.2 -31.8 -17.9
03 11.02 ЮЗ 5 16 км ясно -23.1 -26.7 72 -33 -33 опасность
обморожения
1027.8 960.3
06 11.02 ЮЗ 2 16 км ясно -25.5 -28.4 77 -32 -32 опасность
обморожения
1027.0 960.1 -31.8 -17.9 22
09 11.02 ЮЗ 2 16 км ясно -30.9 -33.9 75 -39 -39 опасность
обморожения
1026.5 959.5
12 11.02 Ю 1 16 км 10/0 2000 м
[]
-27.8 -30.5 78 -32 -32 опасность
обморожения
1025.8 958.9 -31.6 -17.9
15 11.02 СВ 2 16 км 10/10 1500 м
[]
-26.3 -28.9 79 -32 -32 опасность
обморожения
1026.4 959.4
18 11.02 ЮВ 3 16 км 3/0 2000 м
[]
-19.7 -23.8 70 -27 -26 1026.1 959.5 -31.6 -19.7
21 11.02 В 2 16 км ясно -17.0 -22.0 65 -21 -21 1026.4 959.5
00 12.02 В 2 4800 м слаб. снег 10/10 1000 м
[]
-17.8 -20.3 81 -23 -23 1026.6 959.9 -31.6 -15.9
03 12.02 В 2 4000 м слаб. снег 10/10 1000 м
[]
-19.7 -21.8 83 -26 -26 1027.1 960.3
06 12.02 В 2 16 км 10/0 2000 м
[]
-25.0 -27.7 78 -30 -30 1027.6 960.9 -31.6 -15.9
09 12.02 СВ 2 16 км 5/5 1500 м
[]
-22.4 -24.4 84 -29 -29 1026.6 960.4
12 12.02 В 2 16 км 10/0 2000 м
[]
-21.9 -24.1 82 -27 -27 1026.0 959.8 -25.4 -15.9
15 12.02 В 1 16 км 3/3 1000 м
[]
-23.3 -25.6 81 -27 -27 1026.4 959.9
18 12.02 В 3 3600 м слаб. снег 10/10 1000 м
[]
-19.5 -22.0 80 -26 -26 1025.9 959.3 -25.4 -19.5
21 12.02 В 3 4800 м слаб. снег 10/10 600 м
[]
-17.2 -20.3 77 -24 -24 1023.1 957.1
00 13.02 В 3 3600 м слаб. снег 10/10 1000 м
[]
-17.7 -19.9 83 -25 -25 1021.6 955.7 -25.4 -17.1
03 13.02 В 3 8000 м слаб. снег 10/10 1000 м
[]
-19.1 -21.2 83 -26 -26 1020.4 954.3
06 13.02 СВ 2 8000 м слаб. снег 10/10 1000 м
[]
-21.2 -23.2 84 -27 -27 1018.8 953.0 -25.4 -17.1
09 13.02 ЮЗ 1 16 км слаб. снег ясно -26.5 -29.0 79 -28 -28 1017.5 951.5
12 13.02 ЮЗ 1 16 км слаб. снег ясно -30.7 -33.8 74 -32 -32 опасность
обморожения
1016.0 949.8 -31.4 -17.1 0.0
15 13.02 ЮЗ 1 16 км слаб. снег ясно -34.1 -37.8 69 -39 -39 опасность
обморожения
1015.8 949.2
18 13.02 С 2 16 км ясно -22.2 -24.8 79 -27 -26 1014.1 948.4 -34.4 -21.2
21 13.02 СЗ 2 16 км ясно -17.8 -21.5 73 -23 -23 1013.0 947.3
00 14.02 СЗ 3 16 км ясно -20.5 -23.0 80 -28 -28 1014.1 947.8 -34.4 -17.5
03 14.02 СЗ 2 16 км ясно -29.7 -32.3 78 -36 -36 опасность
обморожения
1016.0 948.6
06 14.02 З 1 16 км ясно -33.3 -36.8 71 -38 -38 опасность
обморожения
1016.4 949.6 -34.4 -17.5
09 14.02 З 3 4800 м дым 9/9 50 м
[]
-34.2 -38.1 68 -44 -44 опасность
обморожения
1018.2 951.6
12 14.02 З 2 9000 м дым 10/10 <50 м
[]
-28.9 -31.8 76 -36 -36 опасность
обморожения
1019.5 953.0 -35.5 -17.5
15 14.02 З 2 700 м мгла н/о -29.5 -32.5 75 -37 -37 опасность
обморожения
1021.7 954.3
18 14.02 З 2 16 км ясно -21.1 -23.3 82 -27 -26 1023.1 956.0 -35.5 -21.1
21 14.02 С 2 16 км ясно -16.6 -18.3 87 -21 -20 1022.3 955.5
00 15.02 З 2 16 км ясно -19.5 -22.7 76 -24 -24 1021.8 955.2 -35.5 -14.9
03 15.02 ЮЗ 3 16 км ясно -24.7 -26.7 83 -33 -33 опасность
обморожения
1021.6 954.6
06 15.02 ЮЗ 2 16 км ясно -29.0 -32.0 75 -35 -35 опасность
обморожения
1021.8 955.1 -35.5 -14.9
09 15.02 З 1 16 км ясно -32.4 -35.9 71 -34 -34 опасность
обморожения
1021.8 955.2
12 15.02 В 1 16 км ясно -32.9 -36.4 71 -34 -34 опасность
обморожения
1022.0 955.1 -32.9 -14.9
15 15.02 ЮЗ 2 16 км ясно -32.1 -35.6 71 -39 -38 опасность
обморожения
1022.7 955.4
18 15.02 СЗ 2 16 км ясно -20.5 -22.7 82 -27 -25 1023.1 956.3 -33.7 -20.3
21 15.02 СЗ 2 16 км ясно -18.0 -21.1 77 -22 -22 1023.5 956.6
00 16.02 З 1 16 км ясно -20.4 -22.8 81 -24 -24 1024.4 957.3 -33.7 -17.4
03 16.02 СВ 2 16 км 3/3 600 м
[]
-27.2 -29.9 78 -34 -34 опасность
обморожения
1025.8 958.1
06 16.02 СВ 2 16 км 10/10 300 м
[]
-30.7 -33.8 74 -37 -37 опасность
обморожения
1025.9 958.8 -33.7 -17.4
09 16.02 СВ 1 16 км 10/10 300 м
[]
-27.1 -29.9 77 -28 -28 1026.4 959.8
12 16.02 СВ 2 16 км 10/10 200 м
[]
-23.4 -25.8 81 -30 -30 1027.3 960.7 -32.2 -17.4
15 16.02 СВ 3 16 км 10/10 300 м
[]
-24.3 -26.8 80 -32 -32 опасность
обморожения
1029.2 961.9
18 16.02 В 3 16 км ясно -23.1 -26.3 75 -31 -29 опасность
обморожения
1030.8 963.2 -32.2 -23.0
21 16.02 СВ 3 16 км ясно -21.4 -25.7 68 -29 -28 1031.0 963.8
00 17.02 В 1 16 км ясно -22.1 -25.7 72 -25 -25 1032.3 965.2 -31.1 -21.2
03 17.02 СВ 3 16 км 3/0
[]
-26.1 -28.7 79 -35 -35 опасность
обморожения
1034.2 966.6
06 17.02 В 2 16 км 9/9 300 м
[]
-27.0 -29.6 78 -33 -33 опасность
обморожения
1035.9 968.3 -31.1 -21.2
09 17.02 СВ 2 16 км 10/10 300 м
[]
-27.2 -30.0 77 -34 -34 опасность
обморожения
1036.7 969.1
12 17.02 С 3 16 км 10/10 300 м
[]
-27.4 -30.3 76 -36 -36 опасность
обморожения
1037.9 970.2 -28.5 -21.2
15 17.02 С 1 16 км 9/9 1500 м
[]
-27.2 -30.2 76 -31 -31 опасность
обморожения
1039.4 971.3

 

Местоположение метеостанции Ки Лейк 2 (Саскачеван, Канада): широта 63.23 долгота -101.70 высота над уровнем моря 237 м.

В архиве по умолчанию представлена погода в Ки Лейк 2 за последнюю неделю. Архивные данные за месяц целиком и за предыдущие месяцы, начиная с января 2011 года, Вы можете получить, выбрав интересующий диапазон дат из раскрывающегося списка и нажав кнопку "Ввод!".


*Определитесь, кто Вы:
робот инопланетянин человек

Внимание! Время в таблицах - всемирное. Для получения местного времени необходимо прибавить поправку, которая равна -6 ч.

Смотрите также архив погоды в соседних городах и на ближайших метеорологических станциях:

Погода на Реке Ханбери (Северо-Западные территории, Канада) (176 км)
Погода на Озере Робертсон (Нунавут, Канада) (211 км)
Погода в Бейкер-Лейке (Нунавут, Канада) (302 км)
Погода в Бейкер Лейк (Нунавут, Канада) (305 км)
Погода в Форте Рельянс (Северо-Западные территории, Канада) (379 км)
Погода в Эдсоне (Альберта, Канада) (387 км)
Погода в Глеичене (Альберта, Канада) (402 км)
Погода в Лутселке (Северо-Западные территории, Канада) (461 км)
Погода в Арвиате (Нунавут, Канада) (462 км)
Погода в Арвиате (Нунавут, Канада) (462 км)

Пояснения к столбцам:

Ветер - указаны скорость ветра в м/с - средняя за 10 мин, порывы в срок и между сроками (в фигурных скобках) и направление, откуда дует ветер: С - северный, СВ - северо-восточный, В - восточный, ЮВ - юго-восточный, Ю - южный, ЮЗ - юго-западный, З - западный, СЗ - северо-западный.
Видимость - горизонтальная дальность видимости в метрах или километрах. При видимости от 1 до 10 км при отсутствии осадков обычно наблюдается дымка, при ухудшении видимости до 1 км и менее - туман. В сухую погоду видимость может ухудшаться дымом, пылью или мглою.
Явления - указаны атмосферные явления, наблюдавшиеся в срок или в последний час перед сроком; фигурными скобками обозначены явления, наблюдавшиеся между сроками (за 1-3 часа до срока); квадратными скобками обозначены град или гололедные отложения с указанием их диаметра в мм.
Облачность - указаны через наклонную черту общая и нижняя облачность в баллах и высота нижней границы облаков в метрах; квадратными скобками обозначены формы облаков: Ci - перистые, Cs - перисто-слоистые, Cc - перисто-кучевые, Ac - высококучевые, As - высокослоистые, Sc - слоисто-кучевые, Ns - слоисто-дождевые, Cu - кучевые, Cb - кучево-дождевые. Подробнее классификацию облаков см. в Атласе облаков (PDF).
T - Температура воздуха - температура, измеренная на высоте 2 м над землей.
Td - Температура точки росы - температура, при понижении до которой содержащийся в воздухе водяной пар достигнет насыщения.
f - Относительная влажность воздуха - влажноcть воздуха, измеренная на высоте 2 м над землей.
Te - Эффективная температура - температура, которую ощущает одетый по сезону человек в тени. Характеристика душности погоды. При расчете учитывается влияние влажности воздуха и скорости ветра на теплоощущения человека.
Tes - Эффективная температура на солнце - температура, которую ощущает человек, с поправкой на солнечный нагрев. Характеристика знойности погоды. Зависит от высоты солнца над горизонтом, облачности и скорости ветра. Ночью, в пасмурную погоду, а также при ветре 12 м/с и более поправка равна нулю.
P - Атмосферное давление - приведенное к уровню моря атмосферное давление.
Po - Атмосферное давление - измеренное на уровне метеостанции атмосферное давление.
Tmin - Минимальная температура - минимум температуры воздуха на высоте 2 м над землей.
Tmax - Максимальная температура - максимум температуры воздуха на высоте 2 м над землей.
R - Количество осадков - Количество выпавших осадков за период времени, мм. При наведении курсора мыши на число - период времени, за который выпало указанное количество осадков.
R24 - Количество осадков - Количество выпавших осадков за 24 часа, мм.
S - Снежный покров - Высота снежного покрова, см. При наведении курсора мыши на число - состояние снежного покрова и степень покрытия местности в баллах.